• Join FlightAware (Why Join?)
  • Login
  • US Flag 
08:26PM EDT


 

Airport Tracker/Info


-or-


 

Live Flight TrackerFlight Track Log ✈ N5253C ✈ 03-Jul-2013 ✈ KYIP - KYIP

Flight Track Log - Related Links

Times and Time Zones

All times are in EDT time to prevent confusion due to time zone crossing. See the N5253C flight status page for this flight to view local times or setup timezone preferences in your user account.

Time Position Orientation Groundspeed Altitude Reporting Facility
EDT Latitude Longitude Course Direction KTS MPH feet Rate Location/Type
04:34PM 42.2281 -83.5472 231° Southwest 65 75 1,000  Level Cleveland Center
04:35PM 42.2150 -83.5692 231° Southwest 70 81 1,700 660 Climbing Cleveland Center
04:36PM 42.2125 -83.5914 261° West 84 97 2,300 660 Climbing Cleveland Center
04:37PM 42.2222 -83.6142 300° West 82 94 3,000 360 Climbing Cleveland Center
04:38PM 42.2447 -83.6322 329° Northwest 106 122 3,100  Climbing Cleveland Center
04:39PM 42.2756 -83.6422 347° North 110 127 3,100  Level Cleveland Center
04:40PM 42.3044 -83.6519 346° North 107 123 3,100  Level Cleveland Center
04:41PM 42.3297 -83.6447 12° North 110 127 3,100  Level Cleveland Center
04:42PM 42.3369 -83.6086 75° East 101 116 3,100  Level Cleveland Center
04:43PM 42.3208 -83.5853 133° Southeast 96 110 3,100 -180 Level Cleveland Center
04:44PM 42.2953 -83.6067 212° Southwest 92 106 2,800 -240 Descending Cleveland Center
04:45PM 42.2822 -83.6283 231° Southwest 83 96 2,600 -240 Descending Cleveland Center
04:46PM 42.2667 -83.6669 241° Southwest 93 107 2,300 -360 Descending Cleveland Center
04:47PM 42.2514 -83.6914 230° Southwest 78 90 1,800 -480 Descending Cleveland Center
04:48PM 42.2383 -83.7161 235° Southwest 84 97 1,400 -180 Descending Cleveland Center
04:50PM 42.2371 -83.6672 92° East  Level FlightAware Approximate
04:50PM 42.2139 -83.7625 92° East 73 84 1,300  Level Cleveland Center
04:51PM 42.2158 -83.7767 281° West 81 93 1,700 600 Climbing Cleveland Center
04:52PM 42.2272 -83.8081 296° West 87 100 2,400 600 Climbing Cleveland Center
04:53PM 42.2433 -83.8314 313° West 94 108 3,000 540 Climbing Cleveland Center